Location: Smoky Mountain Stargaze
(35.4252°N, 83.3329°W)
Time: 12:48:20
(UTC-04:00)

Amateur Radio Satellites - All Passes

Search period start: 18 April 2014 12:18
Search period end: 19 April 2014 12:18
Location: Smoky Mountain Stargaze, 35.4252°N, 83.3329°W

Satellite Date Start Highest point End Downlink Frequencies (MHz)
Time Altitude Azimuth
Saudisat 1A 18 Apr 12:19:01 12:23:27 68° 301° (WNW) 12:27:55 436.775 MHz
FUNcube-1 18 Apr 12:19:34 12:23:48 69° 284° (WNW) 12:28:07 145.950 - 145.970 MHz USB
PANSAT 18 Apr 12:19:52 12:23:12 28° 184° (S) 12:26:32 not established
Oscar 11 18 Apr 12:35:03 12:37:29 15° 293° (WNW) 12:39:56 145.825 FM, Beacon 2401.500 USB
PCSat 18 Apr 12:42:12 12:45:24 16° 256° (WSW) 12:48:36 145.825 MHz
HO-68 18 Apr 12:46:12 12:50:14 16° 303° (WNW) 12:54:16 435.675 MHz FM
Oscar 19 18 Apr 13:06:38 13:09:01 13° 63° (ENE) 13:11:24 437.125 CW, 437.150 USB
Oscar 16 18 Apr 13:13:41 13:16:56 17° 65° (ENE) 13:20:13 437.025 USB, Beacon 2401.1428
RS-15 18 Apr 13:34:32 13:38:48 13° 12° (NNE) 13:43:03 29.354 - 29.394 USB, Beacon 29.352 USB
KITSAT 1 18 Apr 13:35:51 13:43:59 86° 244° (WSW) 13:52:02 435.175 FM
Uribyol 2 18 Apr 13:46:24 13:49:54 19° 66° (ENE) 13:53:24 436.500 FM
PANSAT 18 Apr 14:00:23 14:02:56 17° 196° (SSW) 14:05:28 not established
AO-27 18 Apr 14:24:21 14:29:13 42° 71° (ENE) 14:34:06 436.795 MHz FM
ITAMSAT 1 18 Apr 14:35:11 14:40:13 54° 73° (ENE) 14:45:16 435.822 SSB
Oscar 19 18 Apr 14:42:39 14:47:44 66° 258° (WSW) 14:52:52 437.125 CW, 437.150 USB
Oscar 16 18 Apr 14:50:53 14:55:50 50° 260° (W) 15:00:51 437.025 USB, Beacon 2401.1428
AO-Echo 18 Apr 14:53:52 14:59:05 65° 75° (ENE) 15:04:12 ?
ISS 18 Apr 15:00:07 15:01:35 12° 127° (SE) 15:03:04 145.800 FM
TMSAT-1 18 Apr 15:00:19 15:04:01 20° 66° (ENE) 15:07:43 436.925 FM
JAS-1B 18 Apr 15:01:43 15:06:13 17° 63° (ENE) 15:10:21 435.800 - 435.900 CW/SSB
Uribyol 2 18 Apr 15:24:03 15:28:59 46° 260° (W) 15:33:57 436.500 FM
KITSAT 1 18 Apr 15:34:28 15:38:11 14° 260° (W) 15:41:53 435.175 FM
RS-15 18 Apr 15:46:20 15:56:03 35° 45° (NE) 16:05:54 29.354 - 29.394 USB, Beacon 29.352 USB
Gurwin Techsat 1B 18 Apr 15:49:14 15:54:32 84° 76° (ENE) 15:59:52 435.225 FM
AO-7 18 Apr 15:57:51 16:04:41 30° 60° (ENE) 16:11:31 29.400 - 29.500 MHz
OPAL 18 Apr 16:01:59 16:07:04 52° 102° (ESE) 16:12:08 ?
AO-27 18 Apr 16:05:11 16:08:52 20° 266° (W) 16:12:34 436.795 MHz FM
ITAMSAT 1 18 Apr 16:17:01 16:19:59 15° 267° (W) 16:22:58 435.822 SSB
SO-50 18 Apr 16:21:50 16:26:16 69° 117° (ESE) 16:30:45 436.795 FM
ISS 18 Apr 16:34:43 16:37:58 51° 321° (NW) 16:41:16 145.800 FM
AO-Echo 18 Apr 16:35:56 16:38:11 13° 268° (W) 16:40:25 ?
TMSAT-1 18 Apr 16:38:30 16:43:33 46° 261° (W) 16:48:38 436.925 FM
JAS-1B 18 Apr 16:47:41 16:56:15 86° 256° (WSW) 17:03:22 435.800 - 435.900 CW/SSB
Uosat F 18 Apr 16:50:04 16:55:06 86° 76° (ENE) 17:00:09 435.120 FM
UOSAT-12 18 Apr 17:14:51 17:15:37 10° 106° (ESE) 17:16:24 437.025 FM, 437.400 FM
OPAL 18 Apr 17:42:05 17:45:30 18° 297° (WNW) 17:48:55 ?
AO-7 18 Apr 17:48:54 17:56:58 57° 257° (WSW) 18:05:05 29.400 - 29.500 MHz
RS-15 18 Apr 17:58:17 18:09:06 67° 247° (WSW) 18:20:16 29.354 - 29.394 USB, Beacon 29.352 USB
SO-50 18 Apr 18:05:11 18:07:19 13° 314° (NW) 18:09:27 436.795 FM
Hamsat 18 Apr 18:41:14 18:45:10 42° 74° (ENE) 18:49:10 145.90 MHz
JAS-1B 18 Apr 18:43:42 18:47:09 13° 267° (W) 18:50:25 435.800 - 435.900 CW/SSB
UOSAT-12 18 Apr 18:50:37 18:55:07 67° 301° (WNW) 18:59:44 437.025 FM, 437.400 FM
SO-67 18 Apr 19:13:12 19:15:00 14° 69° (ENE) 19:16:49 435.3500 MHz FM
JAS-2 18 Apr 19:33:57 19:39:48 54° 74° (ENE) 19:45:06 435.800 - 435.900 CW/SSB, 435.910 FM
STRAND 1 18 Apr 20:17:07 20:22:14 84° 103° (ESE) 20:27:19 ?
RS-15 18 Apr 20:18:00 20:19:21 10° 263° (W) 20:20:43 29.354 - 29.394 USB, Beacon 29.352 USB
Hamsat 18 Apr 20:19:28 20:21:21 13° 268° (W) 20:23:15 145.90 MHz
SO-67 18 Apr 20:44:53 20:47:53 27° 263° (W) 20:50:54 435.3500 MHz FM
Saudisat 1A 18 Apr 20:48:58 20:53:06 38° 55° (NE) 20:57:10 436.775 MHz
JAS-2 18 Apr 21:21:19 21:25:03 17° 265° (W) 21:28:36 435.800 - 435.900 CW/SSB, 435.910 FM
HO-68 18 Apr 21:21:21 21:28:07 49° 68° (ENE) 21:34:55 435.675 MHz FM
Oscar 11 18 Apr 21:50:18 21:53:41 23° 70° (ENE) 21:57:06 145.825 FM, Beacon 2401.500 USB
STRAND 1 18 Apr 22:00:07 22:00:40 10° 299° (WNW) 22:01:12 ?
MaSat-1 18 Apr 22:08:00 22:11:02 43° 112° (ESE) 22:13:40 437.345 MHz
Saudisat 1A 18 Apr 22:29:26 22:32:22 18° 250° (WSW) 22:35:17 436.775 MHz
ISS 18 Apr 23:06:04 23:09:18 44° 38° (NE) 23:12:31 145.800 FM
HO-68 18 Apr 23:10:04 23:15:58 28° 264° (W) 23:21:54 435.675 MHz FM
FUNcube-1 18 Apr 23:13:12 23:17:23 63° 76° (ENE) 23:21:31 145.950 - 145.970 MHz USB
Oscar 11 18 Apr 23:26:12 23:29:45 25° 264° (W) 23:33:20 145.825 FM, Beacon 2401.500 USB
PCSat 18 Apr 23:57:35 23:58:24 10° 102° (ESE) 23:59:12 145.825 MHz
ISS 19 Apr 00:43:48 00:45:45 15° 232° (SW) 00:47:43 145.800 FM
Sapphire 19 Apr 00:51:18 00:56:11 36° 109° (ESE) 01:01:05 437.095 MHz 1200 baud AX-25 AFSK
SO-50 19 Apr 00:56:40 01:00:41 28° 53° (NE) 01:04:44 436.795 FM
PCSat 19 Apr 01:35:37 01:41:01 82° 296° (WNW) 01:46:28 145.825 MHz
KITSAT 1 19 Apr 02:08:39 02:13:40 18° 102° (ESE) 02:18:41 435.175 FM
Oscar 10/S400 19 Apr 02:25:35 02:41:52 28° 135° (SE) 03:14:24 145.825 - 145.975 CW/USB, Beacon 145.810 USB
Sapphire 19 Apr 02:35:01 02:39:37 28° 305° (NW) 02:44:15 437.095 MHz 1200 baud AX-25 AFSK
SO-50 19 Apr 02:37:10 02:41:11 29° 248° (WSW) 02:45:15 436.795 FM
AO-27 19 Apr 02:41:21 02:45:02 19° 94° (E) 02:48:42 436.795 MHz FM
ITAMSAT 1 19 Apr 02:51:49 02:56:00 24° 96° (E) 03:00:09 435.822 SSB
Oscar 19 19 Apr 02:57:23 03:02:30 57° 101° (E) 03:07:36 437.125 CW, 437.150 USB
AO-Echo 19 Apr 03:05:15 03:09:08 25° 96° (E) 03:12:56 ?
Oscar 16 19 Apr 03:05:29 03:10:42 75° 102° (ESE) 03:15:53 437.025 USB, Beacon 2401.1428
OPAL 19 Apr 03:14:00 03:18:57 65° 72° (ENE) 03:23:59 ?
UOSAT-12 19 Apr 03:23:11 03:27:42 44° 56° (NE) 03:32:10 437.025 FM, 437.400 FM
PCSat 19 Apr 03:23:25 03:25:17 12° 315° (NW) 03:27:09 145.825 MHz
Uribyol 2 19 Apr 03:39:37 03:44:49 81° 103° (ESE) 03:49:59 436.500 FM
KITSAT 1 19 Apr 03:59:58 04:08:05 81° 298° (WNW) 04:16:15 435.175 FM
Gurwin Techsat 1B 19 Apr 04:08:49 04:13:52 43° 99° (E) 04:18:53 435.225 FM
AO-27 19 Apr 04:19:49 04:24:41 42° 289° (WNW) 04:29:31 436.795 MHz FM
ITAMSAT 1 19 Apr 04:30:52 04:35:29 34° 290° (WNW) 04:40:06 435.822 SSB
JAS-1B 19 Apr 04:37:11 04:41:49 25° 97° (E) 04:46:40 435.800 - 435.900 CW/SSB
Oscar 19 19 Apr 04:38:19 04:41:20 16° 296° (WNW) 04:44:21 437.125 CW, 437.150 USB
AO-Echo 19 Apr 04:43:49 04:47:51 28° 291° (WNW) 04:51:49 ?
Oscar 16 19 Apr 04:47:25 04:49:22 12° 298° (WNW) 04:51:19 437.025 USB, Beacon 2401.1428
OPAL 19 Apr 04:56:24 04:58:14 12° 267° (W) 05:00:05 ?
TMSAT-1 19 Apr 04:57:12 05:02:31 89° 284° (WNW) 05:07:48 436.925 FM
Uosat F 19 Apr 05:01:18 05:05:49 33° 98° (E) 05:10:17 435.120 FM
UOSAT-12 19 Apr 05:04:23 05:07:29 18° 251° (WSW) 05:10:34 437.025 FM, 437.400 FM
Uribyol 2 19 Apr 05:22:12 05:23:33 11° 298° (WNW) 05:24:55 436.500 FM
Gurwin Techsat 1B 19 Apr 05:49:38 05:53:29 21° 294° (WNW) 05:57:20 435.225 FM
AO-7 19 Apr 05:53:36 06:01:50 62° 104° (ESE) 06:10:03 29.400 - 29.500 MHz
KITSAT 1 19 Apr 05:59:24 06:04:46 19° 319° (NW) 06:10:10 435.175 FM
RS-15 19 Apr 06:08:14 06:16:51 26° 103° (ESE) 06:25:12 29.354 - 29.394 USB, Beacon 29.352 USB
JAS-1B 19 Apr 06:27:31 06:32:34 34° 291° (WNW) 06:37:48 435.800 - 435.900 CW/SSB
Uosat F 19 Apr 06:40:27 06:44:24 24° 292° (WNW) 06:48:20 435.120 FM
STRAND 1 19 Apr 07:29:58 07:35:05 88° 77° (ENE) 07:40:13 ?
AO-7 19 Apr 07:47:23 07:54:01 28° 301° (WNW) 08:00:40 29.400 - 29.500 MHz
Hamsat 19 Apr 08:05:42 08:09:59 58° 285° (WNW) 08:14:16 145.90 MHz
MaSat-1 19 Apr 08:11:45 08:14:50 77° 67° (ENE) 08:18:32 437.345 MHz
SO-67 19 Apr 08:12:22 08:15:15 24° 96° (E) 08:18:07 435.3500 MHz FM
RS-15 19 Apr 08:16:43 08:28:06 75° 301° (WNW) 08:39:08 29.354 - 29.394 USB, Beacon 29.352 USB
JAS-2 19 Apr 08:29:48 08:35:13 62° 102° (ESE) 08:41:12 435.800 - 435.900 CW/SSB, 435.910 FM
PANSAT 19 Apr 08:37:38 08:39:18 12° 160° (SSE) 08:40:57 not established
Sapphire 19 Apr 09:43:01 09:46:32 17° 50° (NE) 09:50:01 437.095 MHz 1200 baud AX-25 AFSK
SO-67 19 Apr 09:46:04 09:48:11 15° 290° (WNW) 09:50:19 435.3500 MHz FM
PANSAT 19 Apr 10:15:44 10:18:58 25° 172° (S) 10:22:11 not established
JAS-2 19 Apr 10:16:51 10:19:55 15° 295° (WNW) 10:23:06 435.800 - 435.900 CW/SSB, 435.910 FM
PCSat 19 Apr 10:26:51 10:31:58 41° 58° (ENE) 10:37:03 145.825 MHz
RS-15 19 Apr 10:34:34 10:42:38 22° 326° (NNW) 10:50:37 29.354 - 29.394 USB, Beacon 29.352 USB
HO-68 19 Apr 10:39:26 10:46:36 67° 103° (ESE) 10:53:44 435.675 MHz FM
Saudisat 1A 19 Apr 10:53:32 10:56:52 21° 110° (ESE) 11:00:13 436.775 MHz
FUNcube-1 19 Apr 11:06:40 11:09:13 15° 94° (E) 11:11:48 145.950 - 145.970 MHz USB
Oscar 11 19 Apr 11:16:00 11:20:22 72° 101° (ESE) 11:24:42 145.825 FM, Beacon 2401.500 USB
Sapphire 19 Apr 11:25:03 11:30:25 65° 247° (WSW) 11:35:44 437.095 MHz 1200 baud AX-25 AFSK
PANSAT 19 Apr 11:55:26 11:58:46 28° 185° (S) 12:02:05 not established
KITSAT 1 19 Apr 11:57:13 12:04:12 31° 49° (NE) 12:11:07 435.175 FM
